Vorticity
41 20 7 13 12 6 4 6 9 11 13 14 16 16 17 18 11 10 29 35 62 15
15 7 16 10 4 5 7 10 12 14 17 17 14 13 15 15 18 11 8 16 29 65
9 15 9 4 7 9 11 16 19 19 16 14 14 12 13 16 19 21 13 7 16 31
16 9 7 8 10 14 18 18 13 12 15 17 19 23 18 13 19 19 19 11 8 17
7 8 9 10 16 16 14 13 15 18 17 26 22 18 14 22 24 31 19 20 7 11
9 9 12 16 14 11 13 15 16 16 14 18 19 11 17 20 26 31 30 19 11 12
8 13 15 12 11 17 24 27 27 29 21 15 21 11 20 26 31 31 32 22 14 11
11 15 13 11 24 19 19 18 20 26 27 21 17 14 26 24 26 30 28 21 14 10
18 14 10 22 15 18 19 20 18 21 21 17 14 21 23 21 23 25 23 19 14 11
15 10 13 12 12 13 21 23 17 18 20 18 20 23 21 18 20 20 19 16 12 14
15 9 15 8 9 8 14 22 20 14 13 17 19 18 23 20 19 15 15 13 11 14
13 9 13 9 8 8 8 8 8 8 10 18 23 16 14 20 21 18 17 16 15 16
12 9 13 9 8 9 9 9 11 10 10 11 11 7 9 18 20 16 18 18 18 18
13 8 12 12 7 8 8 8 8 10 9 9 11 13 15 10 6 12 25 17 14 15
Height
5424 5421 5418 5415 5412 5410 5408 5405 5402 5399 5398 5396 5395 5396 5397 5402 5406 5411 5415 5420 5429 5446
5412 5408 5406 5402 5399 5397 5393 5389 5385 5381 5379 5377 5376 5376 5377 5381 5385 5389 5396 5401 5407 5418
5401 5397 5393 5390 5386 5381 5377 5372 5367 5363 5361 5359 5358 5357 5357 5361 5364 5368 5375 5382 5388 5396
5389 5385 5381 5376 5370 5365 5361 5355 5351 5347 5344 5341 5339 5337 5338 5340 5343 5347 5353 5362 5370 5378
5378 5374 5369 5363 5356 5350 5345 5339 5334 5330 5326 5323 5321 5319 5320 5320 5321 5325 5332 5341 5352 5361
5368 5363 5356 5350 5343 5336 5330 5324 5318 5313 5310 5307 5305 5304 5302 5301 5301 5305 5312 5323 5335 5345
5358 5352 5345 5338 5331 5324 5316 5310 5304 5299 5296 5294 5292 5290 5287 5285 5285 5289 5297 5308 5320 5331
5348 5341 5335 5329 5322 5314 5306 5299 5293 5288 5284 5282 5281 5279 5276 5275 5276 5280 5288 5297 5309 5319
5339 5333 5328 5322 5314 5307 5299 5291 5286 5281 5277 5275 5273 5271 5269 5269 5271 5275 5282 5290 5300 5309
5332 5326 5321 5315 5309 5302 5294 5288 5282 5278 5274 5271 5268 5266 5265 5266 5269 5272 5278 5284 5292 5299
5325 5320 5315 5310 5305 5298 5292 5286 5280 5276 5272 5269 5266 5264 5263 5264 5267 5269 5273 5278 5284 5290
5319 5314 5310 5305 5301 5295 5290 5285 5280 5276 5273 5269 5266 5264 5263 5263 5264 5266 5269 5272 5277 5282
5312 5309 5304 5301 5297 5292 5288 5284 5280 5276 5273 5270 5267 5265 5264 5263 5262 5263 5265 5267 5270 5274
5306 5303 5299 5295 5292 5289 5285 5282 5278 5275 5272 5269 5267 5265 5263 5262 5261 5261 5262 5263 5265 5268